Torna al catalogo

EUTE 1-F1

ECS 1

AttivoComunicazioniGEO
NORAD 14128·PAYLOAD·🇪🇺 EU

Lanciato Jun 16, 1983 da Guiana Space Centre

Loading…

TLE

AggiornatoSource: Space-Track

Epoca: Sep 14, 2026, 05:34 UTC

1 14128U 83058A   26257.23216445  .00000015  00000-0  00000-0 0  9995
2 14128  11.7260 329.1990 0010100 189.6490 170.3422  0.98867981 47597

Traccia EUTE 1-F1 in tempo reale con AllMySat

Download on the App Store